Погода Аскино

Погода Аскино : погода сейчас, прогноз погоды и архив. Всё, что Вы хотите узнать о погоде Аскино!

Поиск расширенной информации на нашем сайте:

Другие новости

Новости СМИ2

Главная страница сайта

Новости сайта

03.07.2017

Напоминаем, что на нашем специализированном сайте Метеоцентр.Азия вы можете получить высокодетализированные автоматические прогнозы погоды по пунктам России, СНГ и мира в авиационном формате (включающие направление и скорость ветра, видимость, явления погоды, количество и форму облачности, нижнюю и верхнюю границу облачности).


Погода Аскино - сегодня

Время (UTC), дата Ветер
(°,м/с) 
Видим.   Явления Облачность Т
(°С)
Тd
(°С)
f(%) Тe
(°С)
Pmin
(гПа)
dP
(гПа)
Po
(мм)
O2
(г/м3)
Тmin Tmax R s Состояние
почвы
06 12.08.18 250 (З) 20000 м    4/0 средняя, верхняя 
[Ac cuf|Ci ing]
+23.2 +17.3 69 +37  1011.6  0.1  741  271           
09 12.08.18 270 (З) 6-10{10}  20000 м    8/8 1000 м 
[Cu med, cong]
+26.3 +15.3 51 +36  1011.1  -0.3  741  269           
12 12.08.18 280 (З) 5{10}  20000 м    3/3 1000 м 
[Cu med, cong]
+25.7 +13.1 46 +32  1011.6  0.4  741  270           
18 12.08.18 200 (Ю) н/о    1/0 верхняя 
[Ci ing]
+17.4 +14.6 84 +26  1012  0.4  741  278           
21 12.08.18 170 (Ю) н/о    ясно 
+15.1 +13.4 90 +22  1011.9  -0.3  741  280           
00 13.08.18 140 (ЮВ) н/о  дымка  ясно 
+14.1 +12.7 91 +20  1011.7  -0.3  740  281           
03 13.08.18 160 (Ю) 4000 м  дымка  3/0 средняя 
[Ac trans]
+16.7 +14.2 85 +26  1011.5  740  278  +13.3        влажная 
06 13.08.18 200 (Ю) 20000 м    3/1 1000 м верхняя 
[Cu med, cong|Ci sp]
+24.6 +14.8 54 +33  1010.3  -0.5  740  271           
09 13.08.18 240 (ЮЗ) 20000 м    6/6 1000 м 
[Cu med, cong]
+25.1 +12.4 45 +30  1009.7  -0.6  740  271           
12 13.08.18 210 (ЮЗ) 20000 м    4/4 1500 м 
[Cu med, cong]
+26.7 +10.9 37 +29  1008.5  -1  739  269           
18 13.08.18 170 (Ю) н/о    3/0 средняя 
[Ac lent]
+18.2 +12.1 68 +23  1008.4  738  277           
21 13.08.18 180 (Ю) н/о    4/0 средняя 
[Ac lent]
+16.5 +12.3 76 +22  1008.4  0.1  738  278           
00 14.08.18 180 (Ю) н/о    6/3 1000 м средняя 
[Cu med, cong|Ac lent]
+15.9 +12.2 79 +21  1007.9  -0.6  738  279           
03 14.08.18 210 (ЮЗ) 10 км  слаб. ливневой дождь  10/8 600 м кучево-дожд., средняя 
[Cb calv|Ac und]
+16.4 +13.7 84 +24  1008.8  739  278  +15.4      влажная 
06 14.08.18 200 (Ю) 20000 м  {ливн. осадки}  10/8 1000 м средняя 
[Cu med, cong|Ac und]
+20 +14.2 69 +28  1008.6  -0.1  739  274           
09 14.08.18 340 (С) 4000 м  слаб. ливневой дождь  10/8 600 м кучево-дожд., средняя 
[Cb calv|Ac und]
+17.7 +15.6 88 +29  1009  0.3  739  276           
12 14.08.18 350 (С) 10 км  в посл. час гроза{ливн. осадки}  10/8 600 м кучево-дожд., средняя 
[Cb calv|Ac As]
+17.7 +16.4 92 +31  1008.6  -0.4  738  276           
18 14.08.18 300 (СЗ) 4000 м  слаб. дождь  10/10 300 м 
[Ns]
+15.6 +13 85 +22  1010.4  0.9  740  279           
21 14.08.18 140 (ЮВ) 4000 м  слаб. дождь  10/10 300 м 
[Ns]
+13.3 +11.4 88 +18  1010.6  0.1  740  282           
00 15.08.18 260 (З) н/о  {дождь}  9/9 600 м 
[Sc]
+11.3 +10 92 +13  1011.4  0.5  740  284           
03 15.08.18 280 (З) 20000 м    9/3 1000 м средняя, верхняя 
[Cu med, cong|Ac trans|Ci fib]
+12.9 +11.2 89 +16  1012.4  1.2  741  283  +11.3      мокрая 
06 15.08.18 320 (СЗ) 20000 м    8/3 1000 м верхняя 
[Cu hum|Ci]
+17.5 +12.7 73 +23  1012.7  0.7  741  278           
09 15.08.18 290 (З) 20000 м    9/9 1000 м 
[Cu med, cong]
+20.4 +10.3 52 +22  1013.2  0.7  742  276           
12 15.08.18 320 (СЗ) 20000 м    8/8 1000 м 
[Cu med, cong]
+20.4 +8.7 47 +20  1014  0.7  743  277           
18 15.08.18 240 (ЮЗ) н/о    3/0 средняя 
[Ac cuf]
+13.3 +10.5 83 +17  1016.1  0.7  744  284           
Время (UTC), дата Ветер
(°,м/с) 
Видим.   Явления Облачность Т
(°С)
Тd
(°С)
f(%) Тe
(°С)
Pmin
(гПа)
dP
(гПа)
Po
(мм)
O2
(г/м3)
Тmin Tmax R s Состояние
почвы

Для получения пояснительной информации подведите курсор к названию столбца.

ПОГОДА Аскино - архив

Всё, что Вы хотите узнать о погоде Аскино - удобно и подробно!

Выберите нужную дату (начиная с 1 января 2015* года) и нажмите кнопку "Найти".
Будут отображены архивные сводки погоды по пункту Аскино, начиная с указанной даты.


Отображать данные в формате CSV (для использования в таблицах Excel)


Внимание! Наш архив погоды предназначен исключительно для личного некоммерческого использования в познавательных целях. Если Вам необходимы официальные справки о состоянии погоды (для производственных, юридических, коммерческих и т.п. целей), обращайтесь в органы Росгидромета.

*Примечание: данная дата относится к архиву по метеостанциям СССР (Россия, СНГ, Балтия).
Архив по метеостанциям Зарубежной Европы и Азии (кроме Китая) хранится 10 дней, по другим регионам земного шара (Китай, Африка, Америка, Австралия, Океания) - 1 день.

Аскино - район местоположения метеостанции


Название, широта, долгота, высота метеостанции:
Аскино 56.1°ш. 56.6°д. 207 м над ур. моря [Российская Федерация]

Дополнительная информация

В oтличие oт бoльшинства пoгoдных сайтoв мы публикуем пoдрoбную метеoинфoрмацию в детальнoм прoфессиoнальнoм фoрмате.

Характеристики температуры и влажнoсти вoздуха измеряются на высoте 2 м в тени вдали oт зданий и деревьев.
Скoрoсть ветра измеряется на высoте 10 м (на урoвне рoста челoвека скoрoсть ветра ниже в 1.5-2 раза). Если метеoстанция нахoдится в гoрoде или в лесу, тo скoрoсть ветра занижена на 2-4 м/с пo сравнению с oткрытым местoм. Скoрoсть ветра над акватoриями крупных рек и oзёр, а также на вершинах хoлмoв на 2-5 м/с выше, чем в oбычных услoвиях.
Атмoсфернoе давление в разных тoчках местнoсти мoжет значительнo oтличаться oт давления на метеoстанции, в зависимoсти oт услoвий рельефа (при пoдъёме на 10 м давление пoнижается примернo на 1 мм рт.ст.).